Simultaneous Nadir Overpasses (SNOs) Predictions

Prediction of SNOs between AQUA and NPP Satellite Orbit:

Table of predicted SNOs for the next 14.0 days since TLE Epoch: 11/30/2018
Index Date (AQUA) Time (AQUA) Lat,Lon (AQUA) SZA (AQUA ) Date (NPP) Time (NPP) Lat,Lon (NPP) SZA (NPP ) Distance(km) Time Diff (sec)
1 12/02/2018 21:48:40 -75.83, -88.63 61.72 12/02/2018 21:48:16 -75.83, -88.62 61.70 0.25 24
2 12/02/2018 22:37:45 76.82, 82.25 117.23 12/02/2018 22:38:38 76.83, 82.28 117.18 0.69 53
3 12/05/2018 13:17:07 71.37,-150.19 123.09 12/05/2018 13:15:53 71.48,-150.62 123.24 18.98 74
4 12/05/2018 14:05:04 -76.07, 27.97 61.56 12/05/2018 14:05:06 -76.06, 27.92 61.55 1.34 2
5 12/05/2018 14:50:26 81.16, -86.07 105.60 12/05/2018 14:51:39 80.53, -87.71 105.25 75.82 73
6 12/08/2018 05:32:15 75.59, -25.22 119.31 12/08/2018 05:31:25 75.60, -25.15 119.34 2.08 50
7 12/08/2018 06:21:26 -76.39, 144.90 61.54 12/08/2018 06:21:54 -76.38, 144.81 61.55 2.39 28
8 12/10/2018 21:48:36 75.92, 91.63 119.28 12/10/2018 21:48:12 75.92, 91.65 119.30 0.75 24
9 12/10/2018 22:37:48 -76.66, -98.32 61.52 12/10/2018 22:38:42 -76.65, -98.42 61.54 2.92 54
10 12/13/2018 13:16:22 -73.73, 34.26 58.22 12/13/2018 13:15:08 -73.77, 34.08 58.12 7.11 74
11 12/13/2018 14:04:58 76.23,-151.50 119.21 12/13/2018 14:05:00 76.23,-151.50 119.21 0.03 2




NCC Satellite Simultaneous Nadir Overpasses (SNOs) Prediction Service
